Southwest Florida International Airport Fort Myers US
ICAO: KRSW
IATA: RSW
Category: Large
Scheduled Services: Yes

Elevation: 30 ft
TransAlt. 18000 ft.

Airport Communications:
FORT MYERS APP/DEP:119.75
ATIS:124.65
CLNC DEL:132.075
GND:121.9
FORT MYERS TWR:128.75
CTAF/UNICOM:122.95

KRSW Zoom In..

If you have problems with the map follow the link
https://www.worldairports.se/pages/airport.php?
ICAO=KRSW

Runways:

(A) RW 06 length 12000 ft width 150 ft
ILS 111.50 / hdg 58

(B) RW 24 length 12000 ft width 150 ft
---- / hdg 238

Location; KRSW
Day. 16 / Time. 02.53 Zulu
* Altimeter: 30.15
* Temperature: 18° c. 64.4°f.
* Wind from: 090° Speed 06 kn.
Dewpoint: 16° c.
Visibility: 10 Statute Miles.
Clouds: Clear (automated report).

KRSW 160253Z AUTO 09006KT 10SM CLR 18/16 A3015 RMK AO2 SLP206 T01830156 51011


Wind From 090°
Speed 06 kn.

 
 
jpsmedia worldairports.se 2019   terms of use